Year,Month,Day,Hour,Minute,Value (Times are PST for temperature in C)
2015,07,27,00,00,12.40
2015,07,27,00,01,12.40
2015,07,27,00,02,12.30
2015,07,27,00,03,12.30
2015,07,27,00,04,12.30
2015,07,27,00,05,12.30
2015,07,27,00,06,12.30
2015,07,27,00,07,12.30
2015,07,27,00,08,12.20
2015,07,27,00,09,12.20
2015,07,27,00,10,12.20
2015,07,27,00,11,12.20
2015,07,27,00,12,12.20
2015,07,27,00,13,12.20
2015,07,27,00,14,12.10
2015,07,27,00,15,12.10
2015,07,27,00,16,12.10
2015,07,27,00,17,12.10
2015,07,27,00,18,12.10
2015,07,27,00,19,12.10
2015,07,27,00,20,12.10
2015,07,27,00,21,12.10
2015,07,27,00,22,12.10
2015,07,27,00,23,12.10
2015,07,27,00,24,12.00
2015,07,27,00,25,12.00
2015,07,27,00,26,12.00
2015,07,27,00,27,12.00
2015,07,27,00,28,11.90
2015,07,27,00,29,11.90
2015,07,27,00,30,11.90
2015,07,27,00,31,11.90
2015,07,27,00,32,11.90
2015,07,27,00,33,11.90
2015,07,27,00,34,11.90
2015,07,27,00,35,11.80
2015,07,27,00,36,11.80
2015,07,27,00,37,11.80
2015,07,27,00,38,11.80
2015,07,27,00,39,11.80
2015,07,27,00,40,11.80
2015,07,27,00,41,11.80
2015,07,27,00,42,11.80
2015,07,27,00,43,11.80
2015,07,27,00,44,11.90
2015,07,27,00,45,11.80
2015,07,27,00,46,11.80
2015,07,27,00,47,11.80
2015,07,27,00,48,11.80
2015,07,27,00,49,11.80
2015,07,27,00,50,11.80
2015,07,27,00,51,11.80
2015,07,27,00,52,11.80
2015,07,27,00,53,11.90
2015,07,27,00,54,11.90
2015,07,27,00,55,11.90
2015,07,27,00,56,12.00
2015,07,27,00,57,12.00
2015,07,27,00,58,12.10
2015,07,27,00,59,12.10
2015,07,27,01,00,12.10
2015,07,27,01,01,12.20
2015,07,27,01,02,12.20
2015,07,27,01,03,12.20
2015,07,27,01,04,12.20
2015,07,27,01,05,12.30
2015,07,27,01,06,12.30
2015,07,27,01,07,12.30
2015,07,27,01,08,12.30
2015,07,27,01,09,12.20
2015,07,27,01,10,12.20
2015,07,27,01,11,12.20
2015,07,27,01,12,12.10
2015,07,27,01,13,12.10
2015,07,27,01,14,12.10
2015,07,27,01,15,12.00
2015,07,27,01,16,12.00
2015,07,27,01,17,11.90
2015,07,27,01,18,11.90
2015,07,27,01,19,11.90
2015,07,27,01,20,11.90
2015,07,27,01,21,11.90
2015,07,27,01,22,11.90
2015,07,27,01,23,12.00
2015,07,27,01,24,12.00
2015,07,27,01,25,12.00
2015,07,27,01,26,12.00
2015,07,27,01,27,12.00
2015,07,27,01,28,12.10
2015,07,27,01,29,12.10
2015,07,27,01,30,12.10
2015,07,27,01,31,12.10
2015,07,27,01,32,12.10
2015,07,27,01,33,12.10
2015,07,27,01,34,12.00
2015,07,27,01,35,12.00
2015,07,27,01,36,12.00
2015,07,27,01,37,12.10
2015,07,27,01,38,12.10
2015,07,27,01,39,12.10
2015,07,27,01,40,12.20
2015,07,27,01,41,12.20
2015,07,27,01,42,12.20
2015,07,27,01,43,12.20
2015,07,27,01,44,12.20
2015,07,27,01,45,12.20
2015,07,27,01,46,12.20
2015,07,27,01,47,12.20
2015,07,27,01,48,12.20
2015,07,27,01,49,12.30
2015,07,27,01,50,12.30
2015,07,27,01,51,12.30
2015,07,27,01,52,12.30
2015,07,27,01,53,12.40
2015,07,27,01,54,12.40
2015,07,27,01,55,12.40
2015,07,27,01,56,12.40
2015,07,27,01,57,12.40
2015,07,27,01,58,12.40
2015,07,27,01,59,12.40
2015,07,27,02,00,12.30
2015,07,27,02,01,12.30
2015,07,27,02,02,12.30
2015,07,27,02,03,12.30
2015,07,27,02,04,12.30
2015,07,27,02,05,12.20
2015,07,27,02,06,12.20
2015,07,27,02,07,12.10
2015,07,27,02,08,12.10
2015,07,27,02,09,12.10
2015,07,27,02,10,12.00
2015,07,27,02,11,12.00
2015,07,27,02,12,12.00
2015,07,27,02,13,11.90
2015,07,27,02,14,11.90
2015,07,27,02,15,11.90
2015,07,27,02,16,11.90
2015,07,27,02,17,11.80
2015,07,27,02,18,11.80
2015,07,27,02,19,11.80
2015,07,27,02,20,11.80
2015,07,27,02,21,11.80
2015,07,27,02,22,11.80
2015,07,27,02,23,11.80
2015,07,27,02,24,11.80
2015,07,27,02,25,11.80
2015,07,27,02,26,11.80
2015,07,27,02,27,11.80
2015,07,27,02,28,11.80
2015,07,27,02,29,11.80
2015,07,27,02,30,11.80
2015,07,27,02,31,11.80
2015,07,27,02,32,11.80
2015,07,27,02,33,11.80
2015,07,27,02,34,11.80
2015,07,27,02,35,11.80
2015,07,27,02,36,11.80
2015,07,27,02,37,11.80
2015,07,27,02,38,11.80
2015,07,27,02,39,11.80
2015,07,27,02,40,11.80
2015,07,27,02,41,11.80
2015,07,27,02,42,11.80
2015,07,27,02,43,11.80
2015,07,27,02,44,11.80
2015,07,27,02,45,11.70
2015,07,27,02,46,11.70
2015,07,27,02,47,11.70
2015,07,27,02,48,11.70
2015,07,27,02,49,11.70
2015,07,27,02,50,11.60
2015,07,27,02,51,11.60
2015,07,27,02,52,11.60
2015,07,27,02,53,11.60
2015,07,27,02,54,11.60
2015,07,27,02,55,11.50
2015,07,27,02,56,11.50
2015,07,27,02,57,11.50
2015,07,27,02,58,11.50
2015,07,27,02,59,11.50
2015,07,27,03,00,11.50
2015,07,27,03,01,11.50
2015,07,27,03,02,11.50
2015,07,27,03,03,11.50
2015,07,27,03,04,11.50
2015,07,27,03,05,11.60
2015,07,27,03,06,11.60
2015,07,27,03,07,11.70
2015,07,27,03,08,11.70
2015,07,27,03,09,11.70
2015,07,27,03,10,11.70
2015,07,27,03,11,11.70
2015,07,27,03,12,11.70
2015,07,27,03,13,11.70
2015,07,27,03,14,11.80
2015,07,27,03,15,11.80
2015,07,27,03,16,11.80
2015,07,27,03,17,11.90
2015,07,27,03,18,11.90
2015,07,27,03,19,12.00
2015,07,27,03,20,12.10
2015,07,27,03,21,12.20
2015,07,27,03,22,12.30
2015,07,27,03,23,12.40
2015,07,27,03,24,12.50
2015,07,27,03,25,12.60
2015,07,27,03,26,12.80
2015,07,27,03,27,13.00
2015,07,27,03,28,13.10
2015,07,27,03,29,13.20
2015,07,27,03,30,13.30
2015,07,27,03,31,13.50
2015,07,27,03,32,13.60
2015,07,27,03,33,13.70
2015,07,27,03,34,13.80
2015,07,27,03,35,13.90
2015,07,27,03,36,14.00
2015,07,27,03,37,14.10
2015,07,27,03,38,14.20
2015,07,27,03,39,14.20
2015,07,27,03,40,14.30
2015,07,27,03,41,14.40
2015,07,27,03,42,14.40
2015,07,27,03,43,14.40
2015,07,27,03,44,14.50
2015,07,27,03,45,14.50
2015,07,27,03,46,14.60
2015,07,27,03,47,14.60
2015,07,27,03,48,14.60
2015,07,27,03,49,14.60
2015,07,27,03,50,14.60
2015,07,27,03,51,14.70
2015,07,27,03,52,14.80
2015,07,27,03,53,14.80
2015,07,27,03,54,14.80
2015,07,27,03,55,14.80
2015,07,27,03,56,14.80
2015,07,27,03,57,14.80
2015,07,27,03,58,14.80
2015,07,27,03,59,14.80
2015,07,27,04,00,14.90
2015,07,27,04,01,14.90
2015,07,27,04,02,14.90
2015,07,27,04,03,14.90
2015,07,27,04,04,14.90
2015,07,27,04,05,14.90
2015,07,27,04,06,14.90
2015,07,27,04,07,14.90
2015,07,27,04,08,14.90
2015,07,27,04,09,14.90
2015,07,27,04,10,14.90
2015,07,27,04,11,14.80
2015,07,27,04,12,14.80
2015,07,27,04,13,14.80
2015,07,27,04,14,14.80
2015,07,27,04,15,14.80
2015,07,27,04,16,14.80
2015,07,27,04,17,14.80
2015,07,27,04,18,14.80
2015,07,27,04,19,14.80
2015,07,27,04,20,14.80
2015,07,27,04,21,14.80
2015,07,27,04,22,14.70
2015,07,27,04,23,14.70
2015,07,27,04,24,14.70
2015,07,27,04,25,14.70
2015,07,27,04,26,14.70
2015,07,27,04,27,14.70
2015,07,27,04,28,14.70
2015,07,27,04,29,14.70
2015,07,27,04,30,14.70
2015,07,27,04,31,14.60
2015,07,27,04,32,14.60
2015,07,27,04,33,14.60
2015,07,27,04,34,14.50
2015,07,27,04,35,14.50
2015,07,27,04,36,14.40
2015,07,27,04,37,14.40
2015,07,27,04,38,14.40
2015,07,27,04,39,14.40
2015,07,27,04,40,14.40
2015,07,27,04,41,14.40
2015,07,27,04,42,14.30
2015,07,27,04,43,14.30
2015,07,27,04,44,14.30
2015,07,27,04,45,14.30
2015,07,27,04,46,14.30
2015,07,27,04,47,14.30
2015,07,27,04,48,14.30
2015,07,27,04,49,14.20
2015,07,27,04,50,14.20
2015,07,27,04,51,14.20
2015,07,27,04,52,14.20
2015,07,27,04,53,14.10
2015,07,27,04,54,14.10
2015,07,27,04,55,14.00
2015,07,27,04,56,13.90
2015,07,27,04,57,13.90
2015,07,27,04,58,13.80
2015,07,27,04,59,13.80
2015,07,27,05,00,13.80
2015,07,27,05,01,13.80
2015,07,27,05,02,13.80
2015,07,27,05,03,13.70
2015,07,27,05,04,13.80
2015,07,27,05,05,13.80
2015,07,27,05,06,13.80
2015,07,27,05,07,13.80
2015,07,27,05,08,13.80
2015,07,27,05,09,13.80
2015,07,27,05,10,13.80
2015,07,27,05,11,13.80
2015,07,27,05,12,13.80
2015,07,27,05,13,13.80
2015,07,27,05,14,13.80
2015,07,27,05,15,13.70
2015,07,27,05,16,13.70
2015,07,27,05,17,13.70
2015,07,27,05,18,13.60
2015,07,27,05,19,13.60
2015,07,27,05,20,13.60
2015,07,27,05,21,13.50
2015,07,27,05,22,13.50
2015,07,27,05,23,13.40
2015,07,27,05,24,13.40
2015,07,27,05,25,13.30
2015,07,27,05,26,13.30
2015,07,27,05,27,13.20
2015,07,27,05,28,13.20
2015,07,27,05,29,13.10
2015,07,27,05,30,13.10
2015,07,27,05,31,13.10
2015,07,27,05,32,13.00
2015,07,27,05,33,13.00
2015,07,27,05,34,12.90
2015,07,27,05,35,12.90
2015,07,27,05,36,12.90
2015,07,27,05,37,12.80
2015,07,27,05,38,12.80
2015,07,27,05,39,12.80
2015,07,27,05,40,12.70
2015,07,27,05,41,12.70
2015,07,27,05,42,12.70
2015,07,27,05,43,12.70
2015,07,27,05,44,12.70
2015,07,27,05,45,12.70
2015,07,27,05,46,12.70
2015,07,27,05,47,12.60
2015,07,27,05,48,12.60
2015,07,27,05,49,12.60
2015,07,27,05,50,12.50
2015,07,27,05,51,12.50
2015,07,27,05,52,12.40
2015,07,27,05,53,12.40
2015,07,27,05,54,12.40
2015,07,27,05,55,12.40
2015,07,27,05,56,12.40
2015,07,27,05,57,12.30
2015,07,27,05,58,12.30
2015,07,27,05,59,12.30
2015,07,27,06,00,12.30
2015,07,27,06,01,12.30
2015,07,27,06,02,12.30
2015,07,27,06,03,12.40
2015,07,27,06,04,12.40
2015,07,27,06,05,12.40
2015,07,27,06,06,12.40
2015,07,27,06,07,12.40
2015,07,27,06,08,12.40
2015,07,27,06,09,12.40
2015,07,27,06,10,12.50
2015,07,27,06,11,12.50
2015,07,27,06,12,12.40
2015,07,27,06,13,12.40
2015,07,27,06,14,12.40
2015,07,27,06,15,12.40
2015,07,27,06,16,12.40
2015,07,27,06,17,12.50
2015,07,27,06,18,12.50
2015,07,27,06,19,12.50
2015,07,27,06,20,12.50
2015,07,27,06,21,12.60
2015,07,27,06,22,12.60
2015,07,27,06,23,12.60
2015,07,27,06,24,12.60
2015,07,27,06,25,12.70
2015,07,27,06,26,12.70
2015,07,27,06,27,12.70
2015,07,27,06,28,12.80
2015,07,27,06,29,12.80
2015,07,27,06,30,12.80
2015,07,27,06,31,12.80
2015,07,27,06,32,12.80
2015,07,27,06,33,12.90
2015,07,27,06,34,12.90
2015,07,27,06,35,12.90
2015,07,27,06,36,13.00
2015,07,27,06,37,13.00
2015,07,27,06,38,13.00
2015,07,27,06,39,13.10
2015,07,27,06,40,13.10
2015,07,27,06,41,13.20
2015,07,27,06,42,13.30
2015,07,27,06,43,13.30
2015,07,27,06,44,13.30
2015,07,27,06,45,13.40
2015,07,27,06,46,13.40
2015,07,27,06,47,13.40
2015,07,27,06,48,13.50
2015,07,27,06,49,13.50
2015,07,27,06,50,13.60
2015,07,27,06,51,13.70
2015,07,27,06,52,13.70
2015,07,27,06,53,13.80
2015,07,27,06,54,13.90
2015,07,27,06,55,13.90
2015,07,27,06,56,13.90
2015,07,27,06,57,14.00
2015,07,27,06,58,14.00
2015,07,27,06,59,14.10
2015,07,27,07,00,14.10
2015,07,27,07,01,14.20
2015,07,27,07,02,14.20
2015,07,27,07,03,14.30
2015,07,27,07,04,14.30
2015,07,27,07,05,14.40
2015,07,27,07,06,14.50
2015,07,27,07,07,14.50
2015,07,27,07,08,14.60
2015,07,27,07,09,14.70
2015,07,27,07,10,14.70
2015,07,27,07,11,14.80
2015,07,27,07,12,14.80
2015,07,27,07,13,14.90
2015,07,27,07,14,15.00
2015,07,27,07,15,15.00
2015,07,27,07,16,15.10
2015,07,27,07,17,15.10
2015,07,27,07,18,15.20
2015,07,27,07,19,15.20
2015,07,27,07,20,15.30
2015,07,27,07,21,15.30
2015,07,27,07,22,15.40
2015,07,27,07,23,15.40
2015,07,27,07,24,15.40
2015,07,27,07,25,15.50
2015,07,27,07,26,15.50
2015,07,27,07,27,15.60
2015,07,27,07,28,15.60
2015,07,27,07,29,15.60
2015,07,27,07,30,15.70
2015,07,27,07,31,15.70
2015,07,27,07,32,15.80
2015,07,27,07,33,15.80
2015,07,27,07,34,15.80
2015,07,27,07,35,15.80
2015,07,27,07,36,15.90
2015,07,27,07,37,15.90
2015,07,27,07,38,16.00
2015,07,27,07,39,16.00
2015,07,27,07,40,16.10
2015,07,27,07,41,16.10
2015,07,27,07,42,16.20
2015,07,27,07,43,16.20
2015,07,27,07,44,16.30
2015,07,27,07,45,16.30
2015,07,27,07,46,16.30
2015,07,27,07,47,16.30
2015,07,27,07,48,16.30
2015,07,27,07,49,16.30
2015,07,27,07,50,16.30
2015,07,27,07,51,16.30
2015,07,27,07,52,16.30
2015,07,27,07,53,16.40
2015,07,27,07,54,16.40
2015,07,27,07,55,16.40
2015,07,27,07,56,16.40
2015,07,27,07,57,16.50
2015,07,27,07,58,16.50
2015,07,27,07,59,16.60
2015,07,27,08,00,16.60
2015,07,27,08,01,16.60
2015,07,27,08,02,16.70
2015,07,27,08,03,16.70
2015,07,27,08,04,16.70
2015,07,27,08,05,16.70
2015,07,27,08,06,16.70
2015,07,27,08,07,16.80
2015,07,27,08,08,16.80
2015,07,27,08,09,16.80
2015,07,27,08,10,16.80
2015,07,27,08,11,16.80
2015,07,27,08,12,16.80
2015,07,27,08,13,16.80
2015,07,27,08,14,16.90
2015,07,27,08,15,16.90
2015,07,27,08,16,16.90
2015,07,27,08,17,16.90
2015,07,27,08,18,17.00
2015,07,27,08,19,17.00
2015,07,27,08,20,17.10
2015,07,27,08,21,17.10
2015,07,27,08,22,17.10
2015,07,27,08,23,17.10
2015,07,27,08,24,17.20
2015,07,27,08,25,17.20
2015,07,27,08,26,17.20
2015,07,27,08,27,17.20
2015,07,27,08,28,17.20
2015,07,27,08,29,17.20
2015,07,27,08,30,17.20
2015,07,27,08,31,17.30
2015,07,27,08,32,17.30
2015,07,27,08,33,17.40
2015,07,27,08,34,17.40
2015,07,27,08,35,17.40
2015,07,27,08,36,17.40
2015,07,27,08,37,17.40
2015,07,27,08,38,17.40
2015,07,27,08,39,17.40
2015,07,27,08,40,17.40
2015,07,27,08,41,17.40
2015,07,27,08,42,17.40
2015,07,27,08,43,17.50
2015,07,27,08,44,17.60
2015,07,27,08,45,17.60
2015,07,27,08,46,17.60
2015,07,27,08,47,17.70
2015,07,27,08,48,17.70
2015,07,27,08,49,17.70
2015,07,27,08,50,17.60
2015,07,27,08,51,17.60
2015,07,27,08,52,17.60
2015,07,27,08,53,17.60
2015,07,27,08,54,17.60
2015,07,27,08,55,17.60
2015,07,27,08,56,17.60
2015,07,27,08,57,17.70
2015,07,27,08,58,17.70
2015,07,27,08,59,17.70
2015,07,27,09,00,17.60
2015,07,27,09,01,17.70
2015,07,27,09,02,17.70
2015,07,27,09,03,17.70
2015,07,27,09,04,17.70
2015,07,27,09,05,17.80
2015,07,27,09,06,17.80
2015,07,27,09,07,17.80
2015,07,27,09,08,17.80
2015,07,27,09,09,17.80
2015,07,27,09,10,17.80
2015,07,27,09,11,17.80
2015,07,27,09,12,17.80
2015,07,27,09,13,17.80
2015,07,27,09,14,17.80
2015,07,27,09,15,17.80
2015,07,27,09,16,17.80
2015,07,27,09,17,17.70
2015,07,27,09,18,17.70
2015,07,27,09,19,17.60
2015,07,27,09,20,17.60
2015,07,27,09,21,17.50
2015,07,27,09,22,17.50
2015,07,27,09,23,17.50
2015,07,27,09,24,17.50
2015,07,27,09,25,17.50
2015,07,27,09,26,17.50
2015,07,27,09,27,17.50
2015,07,27,09,28,17.50
2015,07,27,09,29,17.50
2015,07,27,09,30,17.50
2015,07,27,09,31,17.50
2015,07,27,09,32,17.40
2015,07,27,09,33,17.40
2015,07,27,09,34,17.40
2015,07,27,09,35,17.40
2015,07,27,09,36,17.40
2015,07,27,09,37,17.30
2015,07,27,09,38,17.30
2015,07,27,09,39,17.30
2015,07,27,09,40,17.30
2015,07,27,09,41,17.30
2015,07,27,09,42,17.30
2015,07,27,09,43,17.30
2015,07,27,09,44,17.30
2015,07,27,09,45,17.30
2015,07,27,09,46,17.30
2015,07,27,09,47,17.30
2015,07,27,09,48,17.40
2015,07,27,09,49,17.40
2015,07,27,09,50,17.40
2015,07,27,09,51,17.50
2015,07,27,09,52,17.50
2015,07,27,09,53,17.60
2015,07,27,09,54,17.60
2015,07,27,09,55,17.70
2015,07,27,09,56,17.70
2015,07,27,09,57,17.70
2015,07,27,09,58,17.80
2015,07,27,09,59,17.80
2015,07,27,10,00,17.90
2015,07,27,10,01,17.90
2015,07,27,10,02,17.80
2015,07,27,10,03,17.80
2015,07,27,10,04,17.80
2015,07,27,10,05,17.70
2015,07,27,10,06,17.70
2015,07,27,10,07,17.70
2015,07,27,10,08,17.70
2015,07,27,10,09,17.70
2015,07,27,10,10,17.70
2015,07,27,10,11,17.80
2015,07,27,10,12,17.80
2015,07,27,10,13,17.80
2015,07,27,10,14,17.80
2015,07,27,10,15,17.80
2015,07,27,10,16,17.90
2015,07,27,10,17,17.90
2015,07,27,10,18,17.90
2015,07,27,10,19,17.90
2015,07,27,10,20,17.90
2015,07,27,10,21,17.90
2015,07,27,10,22,17.90
2015,07,27,10,23,17.90
2015,07,27,10,24,17.90
2015,07,27,10,25,18.00
2015,07,27,10,26,18.00
2015,07,27,10,27,18.10
2015,07,27,10,28,18.10
2015,07,27,10,29,18.10
2015,07,27,10,30,18.10
2015,07,27,10,31,18.10
2015,07,27,10,32,18.20
2015,07,27,10,33,18.20
2015,07,27,10,34,18.30
2015,07,27,10,35,18.30
2015,07,27,10,36,18.30
2015,07,27,10,37,18.30
2015,07,27,10,38,18.20
2015,07,27,10,39,18.20
2015,07,27,10,40,18.10
2015,07,27,10,41,18.20
2015,07,27,10,42,18.20
2015,07,27,10,43,18.30
2015,07,27,10,44,18.30
2015,07,27,10,45,18.30
2015,07,27,10,46,18.30
2015,07,27,10,47,18.20
2015,07,27,10,48,18.20
2015,07,27,10,49,18.10
2015,07,27,10,50,18.10
2015,07,27,10,51,18.10
2015,07,27,10,52,18.10
2015,07,27,10,53,18.10
2015,07,27,10,54,18.10
2015,07,27,10,55,18.10
2015,07,27,10,56,18.10
2015,07,27,10,57,18.10
2015,07,27,10,58,18.20
2015,07,27,10,59,18.20
2015,07,27,11,00,18.30
2015,07,27,11,01,18.30
2015,07,27,11,02,18.30
2015,07,27,11,03,18.30
2015,07,27,11,04,18.30
2015,07,27,11,05,18.20
2015,07,27,11,06,18.20
2015,07,27,11,07,18.20
2015,07,27,11,08,18.20
2015,07,27,11,09,18.30
2015,07,27,11,10,18.30
2015,07,27,11,11,18.30
2015,07,27,11,12,18.30
2015,07,27,11,13,18.40
2015,07,27,11,14,18.40
2015,07,27,11,15,18.40
2015,07,27,11,16,18.40
2015,07,27,11,17,18.40
2015,07,27,11,18,18.40
2015,07,27,11,19,18.40
2015,07,27,11,20,18.40
2015,07,27,11,21,18.40
2015,07,27,11,22,18.40
2015,07,27,11,23,18.50
2015,07,27,11,24,18.50
2015,07,27,11,25,18.60
2015,07,27,11,26,18.60
2015,07,27,11,27,18.70
2015,07,27,11,28,18.70
2015,07,27,11,29,18.70
2015,07,27,11,30,18.70
2015,07,27,11,31,18.60
2015,07,27,11,32,18.60
2015,07,27,11,33,18.60
2015,07,27,11,34,18.60
2015,07,27,11,35,18.60
2015,07,27,11,36,18.60
2015,07,27,11,37,18.50
2015,07,27,11,38,18.40
2015,07,27,11,39,18.40
2015,07,27,11,40,18.50
2015,07,27,11,41,18.60
2015,07,27,11,42,18.60
2015,07,27,11,43,18.60
2015,07,27,11,44,18.60
2015,07,27,11,45,18.70
2015,07,27,11,46,18.70
2015,07,27,11,47,18.70
2015,07,27,11,48,18.60
2015,07,27,11,49,18.60
2015,07,27,11,50,18.60
2015,07,27,11,51,18.50
2015,07,27,11,52,18.40
2015,07,27,11,53,18.40
2015,07,27,11,54,18.50
2015,07,27,11,55,18.50
2015,07,27,11,56,18.50
2015,07,27,11,57,18.60
2015,07,27,11,58,18.50
2015,07,27,11,59,18.50
2015,07,27,12,00,18.50
2015,07,27,12,01,18.60
2015,07,27,12,02,18.60
2015,07,27,12,03,18.70
2015,07,27,12,04,18.80
2015,07,27,12,05,18.90
2015,07,27,12,06,19.00
2015,07,27,12,07,19.00
2015,07,27,12,08,19.00
2015,07,27,12,09,19.10
2015,07,27,12,10,19.10
2015,07,27,12,11,19.10
2015,07,27,12,12,19.10
2015,07,27,12,13,19.20
2015,07,27,12,14,19.20
2015,07,27,12,15,19.30
2015,07,27,12,16,19.30
2015,07,27,12,17,19.20
2015,07,27,12,18,19.10
2015,07,27,12,19,19.00
2015,07,27,12,20,18.90
2015,07,27,12,21,18.90
2015,07,27,12,22,18.80
2015,07,27,12,23,18.80
2015,07,27,12,24,18.70
2015,07,27,12,25,18.70
2015,07,27,12,26,18.70
2015,07,27,12,27,18.80
2015,07,27,12,28,18.80
2015,07,27,12,29,18.80
2015,07,27,12,30,18.90
2015,07,27,12,31,18.90
2015,07,27,12,32,18.90
2015,07,27,12,33,18.90
2015,07,27,12,34,18.90
2015,07,27,12,35,18.90
2015,07,27,12,36,18.80
2015,07,27,12,37,18.80
2015,07,27,12,38,18.80
2015,07,27,12,39,18.80
2015,07,27,12,40,19.00
2015,07,27,12,41,19.10
2015,07,27,12,42,19.20
2015,07,27,12,43,19.30
2015,07,27,12,44,19.30
2015,07,27,12,45,19.50
2015,07,27,12,46,19.60
2015,07,27,12,47,19.60
2015,07,27,12,48,19.50
2015,07,27,12,49,19.50
2015,07,27,12,50,19.40
2015,07,27,12,51,19.30
2015,07,27,12,52,19.30
2015,07,27,12,53,19.30
2015,07,27,12,54,19.30
2015,07,27,12,55,19.40
2015,07,27,12,56,19.40
2015,07,27,12,57,19.40
2015,07,27,12,58,19.40
2015,07,27,12,59,19.50
2015,07,27,13,00,19.50
2015,07,27,13,01,19.60
2015,07,27,13,02,19.50
2015,07,27,13,03,19.50
2015,07,27,13,04,19.40
2015,07,27,13,05,19.40
2015,07,27,13,06,19.40
2015,07,27,13,07,19.40
2015,07,27,13,08,19.40
2015,07,27,13,09,19.40
2015,07,27,13,10,19.50
2015,07,27,13,11,19.50
2015,07,27,13,12,19.60
2015,07,27,13,13,19.50
2015,07,27,13,14,19.50
2015,07,27,13,15,19.40
2015,07,27,13,16,19.40
2015,07,27,13,17,19.40
2015,07,27,13,18,19.30
2015,07,27,13,19,19.20
2015,07,27,13,20,19.20
2015,07,27,13,21,19.30
2015,07,27,13,22,19.30
2015,07,27,13,23,19.30
2015,07,27,13,24,19.10
2015,07,27,13,25,19.00
2015,07,27,13,26,19.00
2015,07,27,13,27,18.90
2015,07,27,13,28,18.90
2015,07,27,13,29,18.80
2015,07,27,13,30,18.70
2015,07,27,13,31,18.70
2015,07,27,13,32,18.80
2015,07,27,13,33,18.80
2015,07,27,13,34,19.00
2015,07,27,13,35,19.00
2015,07,27,13,36,19.10
2015,07,27,13,37,19.20
2015,07,27,13,38,19.30
2015,07,27,13,39,19.20
2015,07,27,13,40,19.20
2015,07,27,13,41,19.20
2015,07,27,13,42,19.20
2015,07,27,13,43,19.30
2015,07,27,13,44,19.40
2015,07,27,13,45,19.50
2015,07,27,13,46,19.60
2015,07,27,13,47,19.80
2015,07,27,13,48,19.90
2015,07,27,13,49,19.90
2015,07,27,13,50,19.90
2015,07,27,13,51,19.80
2015,07,27,13,52,19.70
2015,07,27,13,53,19.60
2015,07,27,13,54,19.50
2015,07,27,13,55,19.40
2015,07,27,13,56,19.40
2015,07,27,13,57,19.30
2015,07,27,13,58,19.30
2015,07,27,13,59,19.30
2015,07,27,14,00,19.20
2015,07,27,14,01,19.20
2015,07,27,14,02,19.20
2015,07,27,14,03,19.10
2015,07,27,14,04,19.00
2015,07,27,14,05,18.90
2015,07,27,14,06,18.90
2015,07,27,14,07,18.90
2015,07,27,14,08,19.00
2015,07,27,14,09,19.10
2015,07,27,14,10,19.20
2015,07,27,14,11,19.30
2015,07,27,14,12,19.40
2015,07,27,14,13,19.50
2015,07,27,14,14,19.50
2015,07,27,14,15,19.50
2015,07,27,14,16,19.50
2015,07,27,14,17,19.40
2015,07,27,14,18,19.30
2015,07,27,14,19,19.30
2015,07,27,14,20,19.40
2015,07,27,14,21,19.50
2015,07,27,14,22,19.60
2015,07,27,14,23,19.70
2015,07,27,14,24,19.80
2015,07,27,14,25,19.90
2015,07,27,14,26,20.00
2015,07,27,14,27,20.10
2015,07,27,14,28,20.10
2015,07,27,14,29,20.10
2015,07,27,14,30,20.20
2015,07,27,14,31,20.30
2015,07,27,14,32,20.40
2015,07,27,14,33,20.40
2015,07,27,14,34,20.50
2015,07,27,14,35,20.50
2015,07,27,14,36,20.50
2015,07,27,14,37,20.50
2015,07,27,14,38,20.50
2015,07,27,14,39,20.50
2015,07,27,14,40,20.50
2015,07,27,14,41,20.50
2015,07,27,14,42,20.60
2015,07,27,14,43,20.70
2015,07,27,14,44,20.80
2015,07,27,14,45,20.80
2015,07,27,14,46,20.90
2015,07,27,14,47,20.90
2015,07,27,14,48,21.00
2015,07,27,14,49,21.00
2015,07,27,14,50,20.90
2015,07,27,14,51,20.90
2015,07,27,14,52,20.90
2015,07,27,14,53,20.90
2015,07,27,14,54,20.90
2015,07,27,14,55,20.90
2015,07,27,14,56,20.90
2015,07,27,14,57,20.90
2015,07,27,14,58,20.90
2015,07,27,14,59,20.80
2015,07,27,15,00,20.80
2015,07,27,15,01,20.80
2015,07,27,15,02,20.70
2015,07,27,15,03,20.70
2015,07,27,15,04,20.80
2015,07,27,15,05,20.90
2015,07,27,15,06,21.00
2015,07,27,15,07,21.10
2015,07,27,15,08,21.20
2015,07,27,15,09,21.30
2015,07,27,15,10,21.30
2015,07,27,15,11,21.30
2015,07,27,15,12,21.30
2015,07,27,15,13,21.30
2015,07,27,15,14,21.20
2015,07,27,15,15,21.30
2015,07,27,15,16,21.30
2015,07,27,15,17,21.30
2015,07,27,15,18,21.40
2015,07,27,15,19,21.50
2015,07,27,15,20,21.50
2015,07,27,15,21,21.60
2015,07,27,15,22,21.60
2015,07,27,15,23,21.60
2015,07,27,15,24,21.60
2015,07,27,15,25,21.60
2015,07,27,15,26,21.60
2015,07,27,15,27,21.60
2015,07,27,15,28,21.70
2015,07,27,15,29,21.70
2015,07,27,15,30,21.80
2015,07,27,15,31,21.90
2015,07,27,15,32,22.00
2015,07,27,15,33,22.00
2015,07,27,15,34,22.00
2015,07,27,15,35,21.90
2015,07,27,15,36,22.00
2015,07,27,15,37,22.00
2015,07,27,15,38,22.10
2015,07,27,15,39,22.20
2015,07,27,15,40,22.20
2015,07,27,15,41,22.30
2015,07,27,15,42,22.30
2015,07,27,15,43,22.40
2015,07,27,15,44,22.50
2015,07,27,15,45,22.50
2015,07,27,15,46,22.50
2015,07,27,15,47,22.50
2015,07,27,15,48,22.50
2015,07,27,15,49,22.60
2015,07,27,15,50,22.60
2015,07,27,15,51,22.70
2015,07,27,15,52,22.70
2015,07,27,15,53,22.70
2015,07,27,15,54,22.60
2015,07,27,15,55,22.70
2015,07,27,15,56,22.70
2015,07,27,15,57,22.70
2015,07,27,15,58,22.70
2015,07,27,15,59,22.80
2015,07,27,16,00,22.90
2015,07,27,16,01,22.90
2015,07,27,16,02,22.90
2015,07,27,16,03,23.00
2015,07,27,16,04,23.10
2015,07,27,16,05,23.10
2015,07,27,16,06,23.10
2015,07,27,16,07,23.10
2015,07,27,16,08,23.10
2015,07,27,16,09,23.00
2015,07,27,16,10,22.90
2015,07,27,16,11,22.80
2015,07,27,16,12,22.80
2015,07,27,16,13,22.80
2015,07,27,16,14,22.80
2015,07,27,16,15,22.80
2015,07,27,16,16,22.90
2015,07,27,16,17,22.90
2015,07,27,16,18,23.00
2015,07,27,16,19,23.00
2015,07,27,16,20,23.00
2015,07,27,16,21,23.10
2015,07,27,16,22,23.10
2015,07,27,16,23,23.10
2015,07,27,16,24,23.00
2015,07,27,16,25,22.90
2015,07,27,16,26,22.90
2015,07,27,16,27,22.80
2015,07,27,16,28,22.80
2015,07,27,16,29,22.80
2015,07,27,16,30,22.80
2015,07,27,16,31,22.80
2015,07,27,16,32,22.80
2015,07,27,16,33,22.70
2015,07,27,16,34,22.70
2015,07,27,16,35,22.70
2015,07,27,16,36,22.60
2015,07,27,16,37,22.60
2015,07,27,16,38,22.60
2015,07,27,16,39,22.60
2015,07,27,16,40,22.70
2015,07,27,16,41,22.70
2015,07,27,16,42,22.80
2015,07,27,16,43,22.80
2015,07,27,16,44,22.80
2015,07,27,16,45,22.80
2015,07,27,16,46,22.80
2015,07,27,16,47,22.80
2015,07,27,16,48,22.80
2015,07,27,16,49,22.80
2015,07,27,16,50,22.80
2015,07,27,16,51,22.80
2015,07,27,16,52,22.90
2015,07,27,16,53,22.90
2015,07,27,16,54,22.80
2015,07,27,16,55,22.80
2015,07,27,16,56,22.80
2015,07,27,16,57,22.80
2015,07,27,16,58,22.70
2015,07,27,16,59,22.60
2015,07,27,17,00,22.60
2015,07,27,17,01,22.60
2015,07,27,17,02,22.60
2015,07,27,17,03,22.60
2015,07,27,17,04,22.60
2015,07,27,17,05,22.60
2015,07,27,17,06,22.50
2015,07,27,17,07,22.50
2015,07,27,17,08,22.60
2015,07,27,17,09,22.60
2015,07,27,17,10,22.70
2015,07,27,17,11,22.80
2015,07,27,17,12,22.80
2015,07,27,17,13,22.90
2015,07,27,17,14,22.90
2015,07,27,17,15,22.90
2015,07,27,17,16,22.90
2015,07,27,17,17,22.90
2015,07,27,17,18,22.90
2015,07,27,17,19,22.90